Starlink 32731

operational
NORAD ID: 62493 Int'l Des: 2025-003 Owner: SPXS Country: US Constellation: starlink
LEOCIRCULAR

Über Starlink 32731

Beschreibung wird geladen...

Live-Position

3D-Globus wird geladen...

Nächste Überflüge

Höhenverlauf

Altitude vs Time

uPlot chart will show altitude changes over time

Zweizeiliger Elementsatz

1 62493U 25003G 25347.55202235 .00031202 00000-0 11376-2 0 9997
2 62493 42.9992 55.8010 0001156 261.1033 98.9688 15.27609205 53495
Epoch: 13. Dez. 2025 • Age: 19 hours

Aktueller Status

Höhe 485.1 km
Geschwindigkeit 7.63 km/s
Subsatellitenpunkt 35.86°N, 106.55°W
Startdatum 6. Jan. 2025
Alter 0.9 years
Typ internet

Technische Details

Klassifizierung Payload
Masse 730.00 kg
Trockenmasse 700.00 kg
Gesamtmasse 730.00 kg
Länge 0.30 m
Durchmesser 4.10 m
Spannweite 29.00 m
Form Box + pan
Hersteller SPXS
Bus-Typ Starlink V2M
Phasenstatus In Orbit
Besitzer/Staat SPXS/US

Große Konstellationen

Loading constellations...